COSMOS 2144

Satellite information

Favourite Embed

Satellite Type and Status

PAYLOADIN ORBIT

Key statistics

Satellite COSMOS 2144 at a glance.

Uptime

12630

Days in orbit

Revolutions

≈ 12.6

Per day

Orbit

LEO

Low Earth Orbit

Inclination

82.6

Latest

Satellite identification and parameters

Extended collection of information and parameters for COSMOS 2144.

Object identification

Identified? True

Debris? False

Object name: COSMOS 2144

International designator: 1991-033B

Object number (NORAD): 21300

Object ID (CCSDS): 21300

Country: COMMONWEALTH OF INDEPENDENT STATES (CIS)

Current information (Y/N): Y

RCS size: MEDIUM

Orbital parameters

Period: 114.07 minutes

Inclination: 82.5775 deg

SMA: 7791.242 km

Apoapsis: 1417.411 km

Periapsis: 1408.804 km

RAAN: 88.6899 deg

Eccentricy: 0.00055234

Argument of periapsis: 166.0837 deg

Mean anomaly: 194.0407 deg

Mean motion: 12.62387518 rev/day

Mean motion (dot): 0.0000004 rev/day2

B* drag term: 0.00016364927 1/REarth

Two-line elements (TLE)

Creation date: Dec. 12, 2025, 10:14 a.m.

Reference frame: TEME

Reference center: EARTH

Epoch: Dec. 12, 2025, 6:35 a.m. UTC

TLE line 0: 0 COSMOS 2144

TLE line 1: 1 21300U 91033B 25346.27497768 .00000040 00000-0 16365-3 0 9990

TLE line 2: 2 21300 82.5775 88.6899 0005523 166.0837 194.0407 12.62387518592875

Live tracking on map

Real-time ground track for satellite COSMOS 2144.

In-orbit conjunctions

A list of the most updated potential collisions computed for object COSMOS 2144.

Target Orbit TCA Probability of collision Miss distance Type
COSMOS 2491 DEB LEO 2024-09-03 03:56:27 0.0001167846 385.0 (m) DEBRIS

Associated space launch

Second generation store-dump military communications satellite

COSMOS 2144 was lifted into orbit during the mission ‘Tsiklon-3 | Strela-3 61 to 66’, on board a Tsiklon-3 space rocket.

The launch took place on May 16, 1991, 9:40 p.m. from 32/2.

For more information about the launch, click the button.

Launch to space Tsiklon-3 | Strela-3 61 to 66
Tsiklon-3 | Strela-3 61 to 66

Agency: N/A

Status: Launch Successful

Launch date: May 16, 1991, 9:40 p.m. UTC

Rocket: Tsiklon-3

Launch pad: 32/2

Location: Plesetsk Cosmodrome, Russian Federation

...

Latest news about this satellite

There are no fresh news available about this satellite. Check back as we update our databases every day.


Newsletter sign-up

Weekly statistics, charts and insights to help you stay on top of the space industry.